Location: Franzen
(48.6167°N, 15.3833°E)
Time: 16:51:39
(UTC+00:00)

A-11 Canister half - All Passes

Search period start: 28 July 2021 00:00
Search period end: 07 August 2021 00:00
Orbit: 1513 x 1687 km, 47.2° (Epoch: 28 July)

Date Brightness Start Highest point End Pass type
(mag) Time Alt. Az. Time Alt. Az. Time Alt. Az.
28 Jul - 01:04:16 10° W 01:10:22 18° SW 01:16:27 10° SSW visible
28 Jul - 14:23:50 10° SE 14:27:39 13° ESE 14:31:30 10° E daylight
28 Jul - 16:21:26 10° SSW 16:30:25 42° SE 16:39:40 10° ENE daylight
28 Jul - 18:24:43 10° WSW 18:34:41 76° SSE 18:44:52 10° E daylight
28 Jul - 20:29:36 10° W 20:39:43 81° S 20:49:56 10° ESE visible
28 Jul - 22:34:37 10° WNW 22:44:19 52° SSW 22:53:57 10° SE visible
29 Jul - 00:41:03 10° W 00:47:34 19° SW 00:54:01 10° SSW visible
29 Jul - 14:02:00 10° SE 14:04:52 12° ESE 14:07:46 10° ESE daylight
29 Jul - 15:58:41 10° SSW 16:07:33 40° SE 16:16:40 10° ENE daylight
29 Jul - 18:01:49 10° WSW 18:11:44 75° SSE 18:21:53 10° E daylight
29 Jul - 20:06:38 10° W 20:16:46 82° S 20:26:59 10° ESE visible
29 Jul - 22:11:40 10° WNW 22:21:24 54° SSW 22:31:08 10° SE visible
30 Jul - 00:17:52 10° W 00:24:44 21° SW 00:31:34 10° S visible
30 Jul - 13:40:51 10° SE 13:42:06 10° ESE 13:43:21 10° ESE daylight
30 Jul - 15:35:58 10° SSW 15:44:41 38° SE 15:53:39 10° ENE daylight
30 Jul - 17:38:55 10° WSW 17:48:47 73° SSE 17:58:55 10° E daylight
30 Jul - 19:43:43 10° W 19:53:48 83° S 20:04:02 10° ESE visible
30 Jul - 21:48:42 10° WNW 21:58:30 56° SSW 22:08:17 10° SE visible
30 Jul - 23:54:44 10° W 00:01:54 22° SW 00:09:04 10° S visible
31 Jul - 15:13:16 10° SSW 15:21:50 36° SE 15:30:38 10° ENE daylight
31 Jul - 17:16:02 10° WSW 17:25:51 72° SSE 17:35:57 10° E daylight
31 Jul - 19:20:46 10° W 19:30:50 83° S 19:41:05 10° E visible
31 Jul - 21:25:45 10° WNW 21:35:35 58° SSW 21:45:26 10° SE visible
31 Jul - 23:31:37 10° W 23:39:05 24° SW 23:46:30 10° S visible
01 Aug - 14:50:35 10° SSW 14:58:58 35° SE 15:07:37 10° ENE daylight
01 Aug - 16:53:09 10° WSW 17:02:55 70° SSE 17:12:59 10° E daylight
01 Aug - 18:57:49 10° W 19:07:52 83° S 19:18:06 10° E visible
01 Aug - 21:02:48 10° WNW 21:12:39 60° SSW 21:22:34 10° SE visible
01 Aug - 23:08:32 10° W 23:16:15 25° SW 23:23:57 10° S visible
02 Aug - 14:27:54 10° SSW 14:36:08 33° SE 14:44:35 10° ENE daylight
02 Aug - 16:30:17 10° WSW 16:39:59 68° SSE 16:50:01 10° ENE daylight
02 Aug - 18:34:54 10° W 18:44:54 84° S 18:55:08 10° E daylight
02 Aug - 20:39:51 10° WNW 20:49:44 62° SSW 20:59:41 10° SE visible
02 Aug - 22:45:27 10° W 22:53:24 27° SW 23:01:21 10° S visible
03 Aug - 14:05:16 10° SSW 14:13:17 31° SE 14:21:32 10° ENE daylight
03 Aug - 16:07:25 10° SW 16:17:03 67° SSE 16:27:02 10° ENE daylight
03 Aug - 18:11:57 10° W 18:21:56 84° S 18:32:10 10° E daylight
03 Aug - 20:16:54 10° WNW 20:26:48 64° SSW 20:36:48 10° SE visible
03 Aug - 22:22:25 10° W 22:30:33 29° SW 22:38:43 10° S visible
04 Aug - 13:42:38 10° S 13:50:27 29° SE 13:58:30 10° E daylight
04 Aug - 15:44:33 10° SW 15:54:08 65° SSE 16:04:04 10° ENE daylight
04 Aug - 17:49:01 10° W 17:58:59 84° S 18:09:12 10° E daylight
04 Aug - 19:53:58 10° WNW 20:03:52 65° SSW 20:13:54 10° SE visible
04 Aug - 21:59:22 10° W 22:07:42 30° SW 22:16:03 10° S visible
05 Aug - 13:20:02 10° S 13:27:38 27° SE 13:35:26 10° E daylight
05 Aug - 15:21:42 10° SW 15:31:13 63° SSE 15:41:06 10° ENE daylight
05 Aug - 17:26:06 10° W 17:36:01 84° S 17:46:14 10° E daylight
05 Aug - 19:31:02 10° WNW 19:40:56 67° SSW 19:51:00 10° ESE visible
05 Aug - 21:36:21 10° WNW 21:44:50 32° SW 21:53:23 10° SSE visible
06 Aug - 12:57:28 10° S 13:04:48 26° SE 13:12:21 10° E daylight
06 Aug - 14:58:52 10° SW 15:08:18 61° SSE 15:18:07 10° ENE daylight
06 Aug - 17:03:11 10° W 17:13:04 84° S 17:23:16 10° E daylight
06 Aug - 19:08:06 10° W 19:18:00 69° SSW 19:28:06 10° ESE visible
06 Aug - 21:13:21 10° WNW 21:21:59 34° SW 21:30:41 10° SSE visible
